{"data":{"norad_id":60907,"intl_designator":"2024-154E","name":"STARLINK-11226 [DTC]","alt_names":[],"object_type":"PAYLOAD","status":"ACTIVE","operator":null,"country":"US","launch_date":"2024-08-31","launch_site_code":"AFETR","launch_vehicle":null,"mission":null,"orbit_class":"UNKNOWN","rcs_meters":null,"size_class":null,"mass_kg":null,"dimensions":null,"purposes":["comms"],"wikipedia_slug":null,"has_3d_model":false,"image_url":null,"decayed_at":null,"tle_current":{"epoch":"2026-05-25T02:31:20.627904Z","epoch_age_seconds":76087,"freshness":"FRESH","line1":"1 60907U 24154E   26145.10509986  .00000060  00000+0  53508-5 0  9995","line2":"2 60907  53.1591 114.7564 0001049  81.4887 278.6249 15.69713907100519","mean_motion":15.69713907,"eccentricity":0.0001049,"inclination_deg":53.1591,"raan_deg":114.7564,"arg_perigee_deg":81.4887,"mean_anomaly_deg":278.6249,"bstar":5.3508e-6,"rev_number":10051,"period_min":91.736461885089,"perigee_km":359.00876936989,"apogee_km":360.42237083909,"semimajor_km":6737.8525701045,"source":"CELESTRAK","updated_at":"2026-05-25T13:38:19.312803Z"}}}